Regional Weather Roundup
Issued by NWS Sioux Falls, SD

Home | Current Version | Previous Version | Text Only | Print | Product List | Glossary On
Versions: 1 2 3 4 5 6 7 8 9 10 11 12 13 14 15 16 17 18 19 20 21 22 23 24 25 26 27 28 29 30 31 32 33 34 35 36 37 38 39 40 41 42 43 44 45 46 47 48 49 50
000
ASUS43 KFSD 221210
RWRFSD

WEATHER ROUNDUP FOR SE SOUTH DAKOTA/SW MINNESOTA/NW IOWA
NATIONAL WEATHER SERVICE SIOUX FALLS SD
700 AM CDT MON MAY 22 2017

NOTE: "FAIR" INDICATES FEW OR NO CLOUDS BELOW 12,000 FEET WITH NO
SIGNIFICANT WEATHER AND OR OBSTRUCTIONS TO VISIBILITY.


SDZ038>040-050-052>070-221300-
SOUTHEAST SOUTH DAKOTA

CITY           SKY/WX    TMP DP  RH WIND       PRES   REMARKS
BROOKINGS      SUNNY     43  41  93 CALM      29.89R
CHAMBERLAIN    CLEAR     48  45  88 W9        29.93S
6HR MIN TEMP:  47; 6HR MAX TEMP:  54;

HURON          CLEAR     46  42  86 W7        29.87F
6HR MIN TEMP:  42; 6HR MAX TEMP:  47;

MADISON        FAIR      45  45 100 W8        29.88F
MITCHELL       CLEAR     48  44  86 W10       29.90F
6HR MIN TEMP:  46; 6HR MAX TEMP:  56;

SIOUX FALLS    PTCLDY    49  45  86 W3        29.89R
6HR MIN TEMP:  48; 6HR MAX TEMP:  54;

WINNER         FAIR      49  42  77 W10       29.95F
YANKTON          N/A     52  46  80 S6        29.93R
$$

MNZ071-072-080-081-089-090-097-098-221300-
SOUTHWEST MINNESOTA

CITY           SKY/WX    TMP DP  RH WIND       PRES   REMARKS
FAIRMONT       CLOUDY    49  43  80 SW8       29.89S
JACKSON        MOSUNNY   46  43  87 SW8       29.89S
LUVERNE        CLOUDY    43  41  93 S6        29.90R
MARSHALL       SUNNY     44  41  89 N9        29.88S
6HR MIN TEMP:  39; 6HR MAX TEMP:  44;

MONTEVIDEO     SUNNY     43  41  93 CALM      29.89R
PIPESTONE      SUNNY     45  39  81 W6        29.88R
REDWOOD FALLS  SUNNY     43  40  89 CALM      29.88R
TRACY          MOSUNNY   51  44  78 W8        29.88R
WINDOM         MOSUNNY   46  43  87 S6        29.88S
WORTHINGTON    PTSUNNY   48  43  82 SW9       29.89R
$$

IAZ001>003-012>014-020>022-031-032-NEZ013-014-SDZ071-221300-
NORTHWEST IOWA

CITY           SKY/WX    TMP DP  RH WIND       PRES   REMARKS
CHEROKEE       CLOUDY    51  47  88 CALM      29.91F
DENISON        SUNNY     52  46  82 S3        29.95F
ESTHERVILLE    CLOUDY    44  44 100 S7        29.89F
LE MARS        CLOUDY    52  46  82 S3        29.92S
ORANGE CITY    CLOUDY    50  48  93 SW6       29.91S
SHELDON          N/A    N/A N/A N/A MISG        N/A
SIOUX CITY     CLEAR     50  46  86 NW3       29.94R
6HR MIN TEMP:  48; 6HR MAX TEMP:  56; 6HR PCP: TRACE;

SPENCER        CLOUDY    51  46  83 SW8       29.90F
6HR MIN TEMP:  42; 6HR MAX TEMP:  53; 6HR PCP:  0.01;

STORM LAKE     CLOUDY    52  45  76 SW9       29.91F
$$

ABBREVIATIONS USED IN REMARKS
   TC - TEMPERATURE IN CELSIUS
  WCI - WIND CHILL INDEX
   HX - HEAT INDEX
  VSB - VISIBILITY




USA.gov is the U.S. government's official web portal to all federal, state and local government web resources and services.